Regional Weather Roundup
Issued by NWS

Home | Current Version | Previous Version | Graphics & Text | Print | Product List | Glossary On
Versions: 1 2 3 4 5 6 7 8 9 10 11 12 13 14 15 16 17 18 19 20 21 22 23 24 25 26 27 28 29 30 31 32 33 34 35 36 37 38 39 40 41 42 43 44 45 46 47 48 49 50
000
ASUS44 KMEG 010000
RWRTN
TENNESSEE HOURLY STATE WEATHER ROUNDUP
NATIONAL WEATHER SERVICE MEMPHIS TN
700 PM CDT SUN AUG 31 2014

TNZ002-004-019-021-049-052-054-088>092-010100-
WEST TENNESSEE

CITY           SKY/WX    TMP DP  RH WIND       PRES   REMARKS
MEMPHIS INTL   MOCLDY    84  73  69 S7        30.00S HX  90
NWS MEMPHIS      N/A     85 N/A N/A MISG        N/A
JACKSON        CLEAR     82  73  74 S5        30.00S
DYERSBURG      CLEAR     82  66  57 S3        29.98F
UNION CITY     CLEAR     82  73  74 S5        29.97S
PARIS          CLEAR     79  72  78 S6        30.00F
SAVANNAH       CLEAR     79  77  94 S6        30.03F
$$

TNZ008-025-027-028-033-062-065-066-010100-
NORTH MIDDLE TENNESSEE

CITY           SKY/WX    TMP DP  RH WIND       PRES   REMARKS
NASHVILLE      MOCLDY    81  71  71 S8        30.04R
CLARKSVILLE    CLEAR     79  72  79 SW6       29.99F
COOKEVILLE     MOCLDY    77  72  83 SW8       30.08R
CROSSVILLE     CLOUDY    73  68  84 VRB3      30.14S
$$

TNZ061-075-076-078-094-096-097-010100-
SOUTH MIDDLE TENNESSEE

CITY           SKY/WX    TMP DP  RH WIND       PRES   REMARKS
FAYETTEVILLE   CLEAR     73  73 100 S6        30.08F
TULLAHOMA      CLEAR     75  72  88 S6        30.10S
WINCHESTER     CLEAR     75  72  88 SW6       30.10F
SHELBYVILLE    CLEAR     79  73  83 S7        30.08S
$$

TNZ017-018-042-046-047-010100-
NORTHEAST TENNESSEE

CITY           SKY/WX    TMP DP  RH WIND       PRES   REMARKS
TRI CITIES     MOCLDY    78  68  71 W3        30.13R
ELIZABETHTON   CLEAR     75  70  83 CALM      30.14S
$$

TNZ012-013-036-069-073-074-010100-
CENTRAL EAST TENNESSEE

CITY           SKY/WX    TMP DP  RH WIND       PRES   REMARKS
KNOXVILLE      CLOUDY    72  70  93 S6        30.10S
OAK RIDGE      CLOUDY    73  70  90 CALM      30.12R
GATLINBURG     CLEAR     73  68  83 VRB3      30.11S
$$

TNZ083-085-099-010100-
SOUTHEAST TENNESSEE

CITY           SKY/WX    TMP DP  RH WIND       PRES   REMARKS
CHATTANOOGA    CLOUDY    75  72  90 CALM      30.09F
$$

SKY/WX REPORTED AS FAIR MEANS FEW OR NO CLOUDS BELOW
12 THOUSAND FEET.



USA.gov is the U.S. government's official web portal to all federal, state and local government web resources and services.